Retour au catalogue

DAQI 1

ActifScienceSSO
NORAD 52257·PAYLOAD·🇨🇳 China

Lancé Apr 15, 2022 depuis Taiyuan Satellite Launch Center

Loading…

Prochains Passages (prochaines 24 heures)

TLE

FraisSource: Space-Track

Époque: Sep 14, 2026, 14:03 UTC

1 52257U 22039A   26257.58576797  .00000020  00000-0  14173-4 0  9995
2 52257  98.1524 194.6047 0003653 359.2650   0.8543 14.57719571234961

Suivez DAQI 1 en temps réel avec AllMySat

Download on the App Store